Temp
82 81 80 80 81 81 81 81 82 81 80 82 81 81 79 77 73 72 72 74 77 80 84 81 79 81 81 81 83 82 84 82 82 84 83 83 82 78 72 71 70 70 71 71 71 71 72 72 72 73 73 73 73 73 73 73 73 74 73 73 74 74 74 72 72 72 73 72 72 72 72 73 74 74
81 81 81 81 81 82 80 81 81 81 80 81 81 80 80 79 75 74 72 73 78 78 81 84 80 80 81 83 82 83 83 79 80 83 83 83 84 75 71 71 71 70 70 70 69 70 70 70 71 70 70 70 71 71 72 72 72 73 72 73 73 74 73 72 72 72 72 72 72 72 72 73 73 73
80 80 80 80 81 81 81 81 81 81 80 80 81 80 80 79 78 76 75 72 76 79 78 81 85 82 81 85 84 84 84 81 80 82 83 83 78 72 76 71 70 70 69 69 69 68 68 68 68 68 69 69 70 70 71 71 72 72 72 72 73 73 73 72 71 72 72 72 72 72 72 72 72 72
80 80 79 79 79 80 80 80 81 80 80 81 81 80 79 79 79 78 75 73 74 79 80 80 81 83 82 82 82 82 83 82 75 82 83 82 76 80 83 75 71 70 69 68 68 67 66 67 68 68 69 69 70 71 71 70 70 70 71 71 71 72 72 70 70 71 71 71 71 71 71 71 72 72
79 79 79 79 80 81 80 80 81 81 80 80 80 80 79 79 79 77 75 74 74 78 80 80 81 83 82 82 82 81 83 82 83 79 83 83 83 84 84 85 75 70 68 67 67 66 66 66 67 68 69 69 70 70 71 70 69 69 69 69 68 68 69 68 68 69 70 70 70 70 71 71 71 71
79 79 78 79 80 80 80 80 80 81 81 80 80 79 79 79 78 78 77 75 74 74 77 77 80 80 81 78 82 80 81 82 83 82 82 83 83 83 84 84 85 73 70 68 66 66 66 66 66 66 67 68 68 68 69 68 67 67 67 66 66 66 65 65 66 68 68 69 69 70 70 70 70 70
79 79 78 79 80 80 79 79 80 81 80 81 79 79 79 78 79 78 78 76 74 74 76 78 78 79 79 79 80 81 82 81 81 80 81 84 84 83 83 83 85 76 70 68 67 66 65 66 66 66 67 67 66 66 65 64 64 64 64 64 65 65 64 65 65 66 67 67 68 69 69 69 69 70
79 79 78 79 80 80 78 78 78 79 80 79 78 78 78 78 78 78 78 77 76 76 75 77 77 79 78 78 80 81 80 81 81 81 82 82 82 83 84 83 83 79 71 68 67 66 66 66 66 65 65 65 64 63 62 62 63 63 63 63 63 63 63 62 63 65 65 65 65 67 67 68 68 66
79 79 79 80 80 79 78 78 78 79 78 78 78 78 78 78 78 79 78 77 77 76 75 76 78 78 77 78 79 80 79 80 80 80 79 81 81 81 84 84 83 75 69 68 67 67 67 66 66 65 65 65 65 64 63 63 63 62 62 62 62 62 62 62 62 63 63 63 63 63 64 65 65 65
80 80 80 80 80 79 78 78 78 78 77 77 77 77 77 78 78 77 77 77 76 76 76 76 76 77 77 77 77 79 78 78 78 79 80 80 79 78 79 83 83 83 82 82 80 72 70 69 65 64 66 65 64 64 63 63 62 61 61 59 58 60 60 61 61 61 61 61 62 63 63 64 64 64
82 81 81 80 80 79 79 79 78 78 77 77 77 77 77 78 77 76 77 76 76 76 75 76 77 77 79 78 77 78 78 77 76 75 76 76 79 79 77 76 80 81 81 77 72 73 74 70 73 67 63 64 64 64 64 63 62 61 59 58 57 57 57 58 59 60 60 60 61 60 60 60 62 64
83 82 82 83 81 81 80 80 80 78 77 77 77 78 78 77 76 76 77 77 76 76 76 76 76 77 76 77 78 77 75 75 75 76 76 74 76 77 78 78 77 79 78 78 81 75 73 73 70 63 64 65 64 63 65 66 65 63 61 59 61 61 60 59 59 59 59 58 58 58 58 58 60 61
82 83 83 83 84 81 76 73 74 74 74 78 77 77 78 77 76 76 77 77 76 76 76 75 76 76 75 76 76 76 75 75 75 78 77 76 77 78 78 78 78 78 77 78 78 78 79 78 78 78 77 78 71 70 66 70 68 65 62 61 62 62 61 60 59 60 59 59 59 58 58 59 60 62
82 82 83 83 75 74 73 71 69 67 67 70 77 79 78 77 76 76 76 76 76 76 75 75 75 75 75 77 76 76 77 78 78 76 76 74 76 76 76 77 78 78 77 76 75 75 77 77 76 76 76 78 77 79 78 79 74 69 64 62 62 61 61 60 60 59 59 59 59 58 57 58 59 60
80 81 82 83 79 74 72 75 67 67 65 66 68 70 71 73 77 76 76 76 77 76 76 77 76 76 75 77 78 77 78 78 77 77 76 76 75 73 72 71 76 77 75 74 73 73 76 75 74 75 75 77 78 79 79 69 67 64 63 62 62 62 61 61 61 61 59 59 58 58 57 58 58 58
80 80 81 81 81 79 80 80 75 70 66 65 66 66 67 68 69 72 77 77 76 76 75 75 76 77 76 76 76 77 78 77 76 76 76 75 74 73 72 72 72 75 74 72 72 72 76 77 75 74 76 78 79 79 71 66 65 64 63 62 62 62 62 61 62 62 61 61 60 61 60 60 60 60
80 79 79 79 78 79 74 77 79 76 74 65 64 65 65 66 66 66 67 71 79 79 76 76 76 77 76 73 74 76 76 77 75 75 75 74 74 73 72 73 75 76 75 72 71 70 74 76 74 74 76 78 78 78 70 65 64 64 62 62 62 62 61 61 61 61 61 60 59 59 59 58 58 58
80 79 78 77 76 78 78 78 78 78 77 75 72 72 73 75 73 66 65 64 67 75 80 77 76 76 75 73 75 77 77 75 74 74 74 74 72 72 72 73 72 74 76 71 70 68 73 76 75 73 76 78 77 77 72 65 63 63 62 61 61 60 60 60 60 60 60 60 59 58 57 56 56 57
81 80 79 78 77 77 77 77 76 77 77 76 75 74 75 76 77 77 78 78 79 78 79 78 78 77 77 77 77 78 78 77 76 76 75 75 74 73 74 73 73 74 76 74 70 65 72 75 73 73 76 78 77 78 71 66 63 62 61 61 61 60 60 59 60 59 59 59 58 58 57 57 56 55
80 80 79 78 77 77 77 71 66 71 77 77 76 75 76 77 78 78 75 72 74 79 80 79 79 81 81 74 78 78 79 77 77 76 76 75 73 71 70 70 75 75 78 75 70 68 70 75 74 74 77 76 75 76 77 70 66 63 61 61 61 60 58 58 58 58 58 59 59 58 57 55 54 53
81 80 79 78 77 78 77 69 62 64 68 76 76 76 76 77 78 78 78 65 64 64 64 64 67 65 61 61 59 59 62 72 74 75 74 72 74 70 68 70 72 73 77 77 74 71 70 73 73 73 74 74 73 74 75 77 69 65 62 61 60 59 59 58 58 58 59 59 59 58 58 56 55 55
80 78 73 75 77 77 77 64 61 61 67 75 76 76 76 76 76 78 79 77 72 61 61 61 60 61 62 62 60 59 59 60 68 75 72 76 76 71 70 68 70 73 74 75 76 70 71 73 73 71 72 72 74 75 75 74 72 67 65 62 61 59 59 59 58 59 59 58 58 58 56 55 54 64
77 77 73 70 73 75 72 61 60 59 66 75 76 76 76 75 76 78 78 77 75 72 73 71 69 69 65 69 72 71 59 61 68 76 77 78 74 71 72 71 70 68 72 74 74 68 70 71 73 71 68 67 72 75 74 73 73 73 74 74 74 65 61 61 59 58 57 57 57 58 56 55 56 68
74 74 74 70 63 63 62 59 57 57 59 74 77 77 76 76 75 80 78 77 78 75 75 75 75 76 75 76 76 76 72 71 73 75 77 76 74 71 71 73 72 69 71 75 75 70 72 72 70 72 70 65 64 70 72 72 73 73 73 72 73 68 66 64 62 59 56 56 57 57 56 55 55 68
73 72 74 76 64 59 58 56 55 55 55 63 77 77 76 78 78 74 77 74 73 77 76 75 75 76 76 76 78 77 75 75 76 76 76 77 77 75 74 74 74 73 74 76 70 71 68 71 68 70 69 68 68 67 69 70 72 72 73 72 71 73 72 72 70 73 64 59 56 54 54 55 54 61
73 73 74 75 65 57 57 56 54 53 54 58 74 77 65 61 62 75 77 77 77 77 76 76 75 76 76 76 77 78 77 77 76 78 78 77 78 78 78 74 71 70 72 72 64 71 68 67 69 67 67 66 67 68 66 68 71 73 72 72 72 71 72 72 73 73 72 74 74 68 69 59 58 56
74 75 75 73 62 56 54 53 53 52 54 56 69 57 54 57 62 70 78 76 76 75 76 75 73 74 75 75 76 75 75 77 76 77 77 77 77 76 76 76 76 74 75 75 75 72 69 67 69 67 65 66 64 65 66 65 67 71 71 72 72 73 74 75 73 73 73 73 73 62 58 57 56 56
76 74 73 70 57 53 51 52 52 52 54 65 55 51 56 58 64 76 75 74 74 73 73 72 73 73 75 76 75 74 75 77 74 75 76 76 77 76 76 75 74 74 74 74 74 73 70 68 68 69 67 65 64 63 63 68 68 69 67 71 73 74 75 75 73 72 72 73 73 73 72 72 74 73
76 66 61 57 54 54 52 52 52 53 54 55 51 53 55 64 74 74 74 73 73 72 72 73 74 75 74 74 75 75 74 74 74 73 74 76 76 76 74 73 73 72 73 74 73 72 70 69 68 69 67 67 65 65 65 64 66 67 68 67 68 72 72 73 73 72 71 72 72 71 71 71 71 72
62 57 56 55 55 54 56 59 64 66 64 55 55 55 61 74 75 74 74 73 72 72 73 73 73 74 74 73 73 72 73 72 72 73 73 73 72 73 72 71 71 73 74 74 74 72 71 70 68 67 66 66 67 65 65 65 64 67 68 68 69 71 73 73 72 72 71 70 70 70 72 72 71 70
63 59 60 61 58 58 57 62 62 63 60 59 61 63 70 74 75 74 74 75 73 73 74 73 74 74 74 73 71 70 70 70 72 73 72 73 73 72 71 68 69 71 72 73 75 73 72 71 69 68 64 65 67 65 66 67 65 66 68 70 69 65 69 71 71 71 71 70 70 70 70 71 72 71
66 64 57 56 61 61 64 66 67 66 66 67 68 70 72 73 73 73 72 72 75 75 75 75 74 71 70 70 72 72 72 72 72 72 71 71 71 71 70 67 67 69 70 70 71 71 69 70 69 68 67 65 63 64 66 66 66 66 67 69 69 70 71 70 70 70 70 69 68 67 68 70 71 71
63 63 64 64 64 65 65 66 67 66 66 68 69 69 69 69 70 72 72 72 73 73 72 71 69 69 70 71 72 72 72 71 71 71 70 69 69 69 69 67 68 68 67 68 69 69 70 70 69 68 67 67 67 65 64 63 66 68 68 68 68 68 69 70 69 69 68 66 66 67 66 68 70 70
63 64 64 65 65 66 66 67 67 68 67 64 65 66 63 68 71 72 72 74 74 72 71 71 70 70 71 71 71 71 71 70 71 69 66 68 68 67 68 67 67 68 66 67 68 68 69 68 68 68 68 67 68 67 66 65 65 67 68 68 67 66 68 69 69 68 67 66 65 64 64 66 69 70
64 64 63 65 66 67 68 68 69 68 67 66 66 66 65 70 71 71 73 74 72 71 71 71 72 71 71 71 71 71 71 71 70 69 69 69 67 67 68 67 67 67 67 67 67 68 67 66 66 66 65 66 66 68 69 68 67 67 68 68 68 67 66 68 68 67 66 66 67 63 64 65 67 70
63 64 64 65 66 68 68 69 69 69 69 67 67 68 67 68 70 71 73 72 73 72 72 71 70 71 71 72 72 72 72 70 70 69 68 68 68 68 68 67 66 67 67 66 67 68 67 66 66 64 62 64 64 64 67 66 65 69 65 65 67 66 66 66 66 66 67 66 66 64 62 62 64 66
63 64 65 66 67 68 68 69 69 70 71 71 70 71 70 70 70 72 73 68 72 72 73 72 71 72 72 72 71 70 71 70 70 69 69 69 69 68 67 66 66 66 66 67 67 67 67 66 66 64 63 63 62 62 65 71 62 61 67 65 65 66 65 65 64 65 67 66 64 65 63 62 62 64
63 64 65 66 67 68 69 70 70 70 71 70 70 70 71 73 72 72 70 70 71 72 71 72 73 72 73 72 72 71 71 71 71 69 69 69 67 67 67 66 66 66 66 66 67 67 67 66 65 65 64 61 61 62 63 67 68 67 61 65 65 65 66 64 64 64 64 66 65 65 65 62 62 64
63 63 65 66 65 66 67 68 69 69 70 70 69 70 71 73 72 71 70 71 73 72 72 72 73 72 72 73 72 71 70 69 69 69 69 69 68 66 66 66 66 66 66 65 67 67 67 66 66 66 65 63 62 63 64 62 63 68 65 56 64 64 65 65 64 64 64 64 65 65 64 65 64 61
63 64 64 65 67 67 67 68 66 68 69 69 70 71 71 70 70 70 70 70 71 71 72 72 72 69 72 72 71 72 71 69 69 69 69 69 67 67 66 66 65 65 64 64 65 66 66 67 67 66 65 65 65 66 66 65 65 66 68 66 54 60 66 65 63 62 62 64 63 61 61 62 59 60
63 63 64 65 66 68 68 69 70 71 71 70 70 67 71 72 71 71 71 71 70 70 72 72 71 71 72 72 71 72 70 69 70 69 69 68 66 66 64 61 64 65 64 64 64 65 66 67 66 60 62 64 65 66 63 63 63 66 67 70 56 51 55 58 63 62 61 62 61 60 59 58 56 55
64 64 65 65 66 66 69 69 70 70 70 70 70 69 69 69 69 64 68 66 69 70 72 72 71 71 72 71 71 70 70 69 68 68 68 68 67 65 62 63 65 65 64 63 64 65 68 68 68 67 67 66 65 63 62 63 63 64 65 67 71 59 52 51 53 56 62 62 60 58 57 56 55 51
64 65 65 64 66 68 70 69 69 70 70 70 69 69 68 67 66 66 69 68 69 71 72 72 72 72 72 72 71 70 70 69 68 68 68 67 67 66 65 66 65 66 65 65 66 66 67 67 67 67 67 67 66 65 63 63 64 64 65 67 67 69 70 62 58 55 54 55 55 57 58 54 48 44
64 64 64 64 66 67 67 67 68 69 69 69 67 66 67 66 67 69 70 70 70 71 72 72 71 71 71 71 70 70 70 70 69 67 67 66 66 66 66 66 64 64 65 65 65 66 67 68 68 68 66 66 67 65 64 64 64 65 65 65 66 66 66 68 69 63 61 60 57 54 54 53 54 53
64 64 64 64 65 66 66 67 68 69 69 68 67 67 67 69 70 71 71 71 71 72 71 71 71 71 71 70 69 68 69 64 66 68 68 67 67 65 65 66 65 65 64 65 64 64 65 66 68 68 67 67 67 66 65 64 63 63 64 64 64 65 66 65 64 64 64 65 61 54 54 54 54 53
MSLP
1019.60 1019.84 1020.08 1020.24 1020.20 1020.24 1020.28 1020.32 1020.36 1020.52 1020.68 1020.72 1020.84 1020.96 1021.52 1021.92 1022.80 1023.20 1023.28 1022.84 1022.48 1021.80 1021.36 1021.80 1021.56 1021.12 1021.12 1021.16 1020.92 1021.04 1021.00 1020.96 1021.08 1021.00 1021.08 1021.12 1021.12 1021.12 1021.32 1021.44 1021.52 1021.56 1021.60 1021.60 1021.64 1021.60 1021.60 1021.60 1021.60 1021.56 1021.52 1021.52 1021.48 1021.44 1021.44 1021.40 1021.40 1021.36 1021.32 1021.28 1021.24 1021.20 1021.20 1021.20 1021.24 1021.24 1021.24 1021.24 1021.24 1021.24 1021.20 1021.16 1021.12 1021.08
1019.44 1019.68 1019.88 1020.00 1020.08 1020.00 1020.16 1020.24 1020.24 1020.40 1020.56 1020.72 1020.84 1020.96 1021.00 1021.28 1022.16 1022.44 1023.08 1022.76 1021.92 1022.00 1021.48 1021.20 1021.56 1021.24 1021.12 1020.96 1021.04 1020.96 1021.00 1020.96 1021.08 1020.92 1020.92 1020.92 1020.84 1021.00 1021.20 1021.32 1021.36 1021.40 1021.40 1021.44 1021.48 1021.48 1021.44 1021.40 1021.36 1021.32 1021.32 1021.32 1021.28 1021.24 1021.20 1021.16 1021.16 1021.16 1021.16 1021.12 1021.04 1021.00 1020.96 1020.96 1021.00 1021.04 1021.00 1021.00 1021.00 1021.00 1021.00 1020.96 1020.88 1020.88
1019.24 1019.60 1019.84 1019.84 1019.92 1019.80 1019.92 1019.96 1020.08 1020.20 1020.36 1020.52 1020.64 1020.80 1020.92 1021.16 1021.32 1021.84 1022.24 1023.00 1021.88 1021.40 1021.84 1021.28 1020.72 1021.04 1021.04 1020.80 1020.80 1020.80 1020.68 1020.76 1020.84 1020.80 1020.72 1020.72 1020.76 1020.96 1020.96 1021.04 1021.08 1021.16 1021.20 1021.24 1021.24 1021.24 1021.20 1021.20 1021.16 1021.16 1021.12 1021.08 1021.00 1020.96 1020.88 1020.84 1020.84 1020.84 1020.84 1020.84 1020.80 1020.76 1020.72 1020.72 1020.76 1020.80 1020.80 1020.76 1020.76 1020.76 1020.76 1020.72 1020.68 1020.64
1019.00 1019.36 1019.64 1019.72 1019.72 1019.64 1019.76 1019.92 1020.00 1020.16 1020.16 1020.20 1020.44 1020.64 1020.84 1020.96 1021.00 1021.28 1021.84 1022.40 1022.28 1021.32 1021.28 1021.16 1021.04 1020.84 1020.88 1020.84 1021.00 1020.88 1020.68 1020.52 1020.68 1020.56 1020.52 1020.48 1020.72 1020.72 1020.60 1020.68 1020.88 1020.92 1021.04 1021.04 1021.08 1021.04 1021.04 1021.00 1020.96 1020.92 1020.84 1020.80 1020.76 1020.72 1020.64 1020.60 1020.56 1020.56 1020.52 1020.52 1020.52 1020.52 1020.48 1020.48 1020.48 1020.52 1020.60 1020.60 1020.56 1020.56 1020.56 1020.52 1020.48 1020.44
1018.76 1019.04 1019.32 1019.40 1019.36 1019.28 1019.64 1019.68 1019.76 1019.84 1020.00 1020.12 1020.24 1020.40 1020.56 1020.80 1020.84 1021.16 1021.60 1022.08 1022.04 1021.32 1020.84 1021.04 1021.00 1020.68 1020.76 1020.96 1020.76 1020.88 1020.68 1020.60 1020.44 1020.44 1020.36 1020.36 1020.40 1020.40 1020.40 1020.32 1020.44 1020.68 1020.76 1020.84 1020.88 1020.88 1020.84 1020.84 1020.80 1020.76 1020.68 1020.60 1020.52 1020.44 1020.40 1020.36 1020.36 1020.32 1020.28 1020.24 1020.24 1020.28 1020.28 1020.28 1020.28 1020.32 1020.32 1020.36 1020.36 1020.32 1020.32 1020.28 1020.24 1020.24
1018.44 1018.68 1018.96 1019.04 1019.08 1019.08 1019.32 1019.36 1019.56 1019.56 1019.72 1019.92 1020.08 1020.28 1020.36 1020.52 1020.68 1020.60 1021.20 1021.52 1021.72 1021.84 1021.16 1021.20 1020.72 1020.80 1020.64 1021.20 1020.48 1020.80 1020.76 1020.52 1020.36 1020.44 1020.36 1020.24 1020.20 1020.32 1020.20 1020.20 1020.12 1020.28 1020.44 1020.52 1020.60 1020.64 1020.64 1020.64 1020.60 1020.60 1020.52 1020.48 1020.36 1020.28 1020.20 1020.20 1020.16 1020.12 1020.08 1020.00 1020.00 1020.00 1020.00 1020.00 1020.04 1020.04 1020.04 1020.08 1020.08 1020.04 1020.04 1020.00 1020.00 1020.00
1018.04 1018.36 1018.56 1018.64 1018.68 1018.84 1019.16 1019.20 1019.20 1019.16 1019.40 1019.48 1019.72 1019.92 1019.96 1020.24 1020.24 1020.32 1020.52 1021.04 1021.52 1021.56 1021.32 1020.76 1020.92 1020.80 1020.68 1020.84 1020.60 1020.36 1020.32 1020.36 1020.32 1020.52 1020.36 1020.16 1020.00 1020.00 1020.04 1020.04 1019.88 1019.96 1020.16 1020.28 1020.36 1020.40 1020.44 1020.44 1020.40 1020.40 1020.40 1020.36 1020.32 1020.20 1020.08 1020.00 1020.00 1020.00 1019.96 1019.96 1019.88 1019.80 1019.76 1019.76 1019.72 1019.76 1019.80 1019.84 1019.84 1019.80 1019.80 1019.80 1019.76 1019.76
1017.60 1017.84 1018.12 1018.16 1018.20 1018.44 1018.88 1018.92 1018.96 1018.88 1019.00 1019.28 1019.48 1019.60 1019.64 1019.84 1020.00 1020.00 1020.16 1020.40 1020.84 1020.92 1021.28 1020.84 1020.84 1020.52 1020.72 1020.56 1020.32 1020.24 1020.24 1020.28 1020.28 1020.20 1020.04 1019.92 1020.04 1019.92 1019.80 1019.84 1019.84 1019.76 1019.92 1020.08 1020.12 1020.12 1020.08 1020.12 1020.08 1020.08 1020.08 1020.08 1020.00 1019.92 1019.92 1019.88 1019.84 1019.76 1019.72 1019.68 1019.64 1019.60 1019.60 1019.56 1019.52 1019.52 1019.56 1019.64 1019.64 1019.64 1019.60 1019.56 1019.56 1019.56
1016.92 1017.20 1017.36 1017.48 1017.64 1017.92 1018.40 1018.48 1018.56 1018.56 1018.84 1018.92 1019.16 1019.36 1019.40 1019.60 1019.64 1019.76 1019.92 1020.08 1020.28 1020.68 1020.96 1020.72 1020.32 1020.32 1020.44 1020.32 1020.24 1020.12 1020.40 1020.24 1020.12 1020.04 1020.12 1020.00 1019.96 1019.88 1019.68 1019.56 1019.60 1019.72 1019.76 1019.80 1019.80 1019.76 1019.80 1019.80 1019.80 1019.80 1019.76 1019.68 1019.64 1019.64 1019.68 1019.68 1019.64 1019.56 1019.44 1019.36 1019.36 1019.36 1019.36 1019.36 1019.32 1019.28 1019.32 1019.36 1019.40 1019.44 1019.44 1019.40 1019.36 1019.32
1016.24 1016.48 1016.68 1016.84 1017.04 1017.36 1017.68 1017.80 1017.92 1018.12 1018.40 1018.60 1018.84 1019.04 1019.12 1019.20 1019.36 1019.64 1019.76 1019.84 1020.04 1020.28 1020.40 1020.48 1020.44 1020.16 1020.36 1020.36 1020.24 1020.00 1020.12 1020.36 1020.40 1020.20 1019.92 1019.84 1019.84 1019.92 1019.88 1019.60 1019.44 1019.44 1019.48 1019.48 1019.40 1019.40 1019.40 1019.36 1019.52 1019.56 1019.56 1019.52 1019.48 1019.44 1019.44 1019.44 1019.36 1019.32 1019.32 1019.24 1019.20 1019.16 1019.20 1019.20 1019.12 1019.12 1019.12 1019.12 1019.12 1019.12 1019.12 1019.12 1019.12 1019.08
1015.64 1015.84 1016.04 1016.24 1016.40 1016.68 1016.84 1017.12 1017.32 1017.60 1017.96 1018.20 1018.44 1018.56 1018.76 1018.88 1019.16 1019.44 1019.56 1019.64 1019.84 1020.00 1020.16 1020.12 1020.04 1020.04 1019.72 1019.92 1020.32 1019.96 1019.96 1020.12 1020.28 1020.48 1020.36 1020.28 1019.72 1019.60 1019.72 1019.96 1019.56 1019.40 1019.40 1019.32 1019.36 1019.36 1019.36 1019.40 1019.36 1019.32 1019.40 1019.40 1019.36 1019.28 1019.20 1019.12 1019.12 1019.08 1019.08 1019.00 1019.00 1019.04 1019.04 1018.96 1018.96 1018.92 1018.88 1018.84 1018.84 1018.84 1018.84 1018.84 1018.80 1018.76
1015.16 1015.32 1015.44 1015.52 1015.64 1015.88 1016.00 1016.24 1016.52 1016.88 1017.48 1017.68 1018.04 1018.04 1018.28 1018.52 1018.84 1019.08 1019.16 1019.32 1019.48 1019.72 1019.80 1019.92 1019.88 1019.76 1019.92 1019.80 1019.76 1019.84 1020.12 1020.32 1020.20 1019.96 1020.12 1020.40 1020.08 1019.72 1019.40 1019.40 1019.68 1019.48 1019.52 1019.56 1019.20 1019.04 1019.04 1018.96 1019.00 1019.16 1019.16 1019.12 1019.12 1019.04 1018.92 1018.84 1018.80 1018.76 1018.76 1018.80 1018.84 1018.80 1018.72 1018.68 1018.60 1018.56 1018.52 1018.52 1018.56 1018.52 1018.52 1018.52 1018.48 1018.44
1014.84 1014.88 1014.88 1014.88 1014.92 1015.12 1015.32 1015.68 1016.04 1016.36 1016.64 1017.12 1017.60 1017.68 1017.80 1018.16 1018.48 1018.72 1018.80 1018.96 1019.16 1019.32 1019.48 1019.60 1019.48 1019.72 1019.84 1019.76 1019.92 1020.04 1020.16 1020.24 1020.04 1019.64 1019.64 1019.88 1019.60 1019.44 1019.36 1019.24 1019.20 1019.36 1019.52 1019.40 1019.24 1019.08 1018.88 1018.96 1018.92 1018.96 1018.88 1018.68 1018.76 1018.60 1018.64 1018.52 1018.52 1018.56 1018.60 1018.56 1018.52 1018.48 1018.48 1018.44 1018.36 1018.32 1018.32 1018.28 1018.28 1018.28 1018.24 1018.20 1018.16 1018.12
1014.48 1014.40 1014.28 1014.20 1014.48 1014.76 1015.16 1015.64 1016.00 1016.20 1016.36 1016.44 1016.56 1016.88 1017.28 1017.64 1018.04 1018.36 1018.56 1018.68 1018.80 1019.00 1019.28 1019.32 1019.36 1019.56 1019.52 1019.36 1019.48 1019.68 1019.52 1019.36 1019.36 1019.60 1019.64 1019.92 1019.56 1019.52 1019.56 1019.20 1018.96 1019.12 1019.32 1019.44 1019.52 1019.20 1018.80 1018.88 1018.96 1018.88 1018.84 1018.48 1018.40 1018.20 1018.12 1018.04 1018.16 1018.40 1018.48 1018.48 1018.44 1018.40 1018.36 1018.28 1018.24 1018.16 1018.12 1018.04 1018.00 1017.96 1017.92 1017.88 1017.88 1017.80
1014.08 1013.92 1013.84 1013.92 1014.20 1014.68 1015.12 1015.44 1015.80 1016.04 1016.24 1016.32 1016.40 1016.44 1016.60 1016.84 1017.24 1017.80 1018.16 1018.24 1018.32 1018.64 1018.84 1018.76 1018.96 1019.08 1019.16 1019.04 1018.96 1019.32 1019.20 1019.16 1019.32 1019.36 1019.36 1019.52 1019.60 1019.84 1020.08 1020.16 1019.24 1018.96 1019.32 1019.48 1019.52 1019.28 1018.84 1018.88 1019.08 1018.88 1018.68 1018.40 1018.20 1018.04 1017.92 1018.12 1018.28 1018.36 1018.32 1018.28 1018.20 1018.16 1018.12 1018.08 1018.04 1018.00 1017.96 1017.92 1017.88 1017.80 1017.72 1017.68 1017.60 1017.52
1013.52 1013.56 1013.60 1013.76 1013.92 1014.20 1014.56 1014.96 1015.48 1015.92 1016.12 1016.20 1016.28 1016.40 1016.56 1016.76 1016.84 1016.80 1017.12 1017.68 1018.08 1018.20 1018.52 1018.68 1018.64 1018.64 1018.84 1018.84 1018.96 1019.04 1019.00 1019.12 1019.12 1019.12 1019.16 1019.36 1019.56 1019.68 1019.80 1019.68 1019.80 1019.00 1019.04 1019.44 1019.52 1019.32 1018.68 1018.56 1018.80 1018.76 1018.44 1018.16 1017.96 1017.84 1017.96 1018.12 1018.16 1018.16 1018.12 1018.08 1018.04 1018.00 1017.96 1017.92 1017.88 1017.84 1017.76 1017.68 1017.64 1017.60 1017.52 1017.44 1017.32 1017.24
1013.04 1013.12 1013.40 1013.64 1013.72 1013.92 1014.48 1014.80 1015.00 1015.40 1015.88 1016.20 1016.32 1016.36 1016.52 1016.64 1016.72 1016.84 1016.84 1016.80 1016.96 1017.28 1017.96 1018.20 1018.28 1018.32 1018.44 1018.88 1018.76 1018.56 1018.76 1018.72 1019.12 1019.04 1019.20 1019.16 1019.24 1019.28 1019.52 1019.36 1019.12 1018.80 1018.80 1019.28 1019.40 1019.40 1018.72 1018.56 1018.64 1018.60 1018.16 1017.92 1017.80 1017.72 1017.68 1017.92 1018.00 1018.00 1017.96 1017.96 1017.88 1017.84 1017.80 1017.72 1017.64 1017.56 1017.52 1017.48 1017.44 1017.40 1017.32 1017.24 1017.16 1017.08
1012.48 1012.64 1012.96 1013.32 1013.72 1013.88 1014.24 1014.44 1014.64 1014.96 1015.32 1015.80 1016.28 1016.56 1016.60 1016.56 1016.64 1016.80 1016.88 1016.96 1017.04 1017.00 1017.24 1017.64 1018.00 1017.96 1018.04 1018.44 1018.24 1018.04 1018.12 1018.68 1018.92 1018.96 1019.00 1018.92 1019.12 1019.20 1019.20 1018.96 1019.08 1018.88 1018.76 1019.32 1019.36 1019.48 1018.72 1018.24 1018.48 1018.48 1018.04 1017.68 1017.64 1017.52 1017.48 1017.64 1017.72 1017.80 1017.80 1017.80 1017.76 1017.72 1017.64 1017.56 1017.48 1017.40 1017.36 1017.28 1017.16 1017.12 1017.04 1017.00 1016.92 1016.84
1011.96 1012.12 1012.36 1012.76 1013.20 1013.52 1013.80 1013.92 1014.20 1014.56 1014.96 1015.36 1015.72 1016.04 1016.20 1016.24 1016.12 1016.28 1016.48 1016.68 1016.76 1017.00 1017.00 1017.24 1017.40 1017.52 1017.52 1017.60 1017.60 1017.60 1017.84 1018.08 1018.28 1018.32 1018.56 1018.60 1018.72 1018.80 1018.72 1018.84 1018.80 1018.72 1018.40 1018.76 1019.32 1019.68 1018.64 1018.20 1018.44 1018.24 1017.88 1017.60 1017.48 1017.20 1017.16 1017.32 1017.48 1017.56 1017.60 1017.60 1017.56 1017.52 1017.48 1017.40 1017.32 1017.28 1017.16 1017.08 1017.00 1016.88 1016.80 1016.68 1016.60 1016.56
1011.48 1011.64 1012.00 1012.44 1012.80 1013.08 1013.44 1013.60 1013.88 1014.12 1014.44 1014.96 1015.32 1015.64 1015.76 1015.84 1015.84 1015.84 1015.72 1015.84 1016.04 1016.24 1016.48 1016.76 1016.92 1016.92 1016.92 1017.08 1017.16 1017.32 1017.56 1017.84 1017.96 1018.16 1018.24 1018.40 1018.72 1019.04 1019.20 1019.20 1018.52 1018.52 1017.96 1018.48 1019.12 1019.20 1018.72 1018.04 1018.24 1018.00 1017.64 1017.56 1017.48 1017.16 1017.04 1016.96 1017.12 1017.24 1017.32 1017.32 1017.28 1017.24 1017.20 1017.12 1017.04 1016.96 1016.88 1016.76 1016.64 1016.52 1016.44 1016.36 1016.32 1016.24
1011.12 1011.36 1011.64 1012.00 1012.40 1012.72 1013.08 1013.28 1013.72 1014.00 1014.28 1014.64 1014.92 1015.12 1015.32 1015.44 1015.56 1015.60 1015.56 1015.92 1016.16 1016.36 1016.52 1016.56 1016.68 1016.92 1017.12 1017.24 1017.40 1017.56 1017.76 1017.80 1017.80 1018.08 1018.44 1018.72 1018.44 1019.00 1019.32 1018.92 1018.72 1018.52 1018.08 1018.12 1018.44 1018.72 1018.76 1018.12 1018.04 1018.04 1017.72 1017.64 1017.56 1017.28 1017.00 1016.76 1016.84 1017.00 1017.04 1017.00 1016.96 1016.92 1016.84 1016.76 1016.72 1016.60 1016.48 1016.40 1016.28 1016.20 1016.08 1015.96 1015.92 1015.84
1010.80 1011.00 1011.40 1011.68 1011.92 1012.32 1012.60 1012.92 1013.44 1013.76 1014.16 1014.44 1014.56 1014.76 1015.00 1015.28 1015.40 1015.36 1015.32 1015.72 1016.20 1016.56 1016.76 1016.92 1017.04 1017.16 1017.24 1017.32 1017.44 1017.60 1017.80 1018.00 1017.88 1017.92 1018.44 1017.96 1017.96 1018.60 1018.80 1019.08 1018.72 1018.32 1018.24 1018.08 1018.16 1018.80 1018.52 1017.96 1017.88 1018.08 1017.68 1017.52 1017.20 1016.96 1016.76 1016.80 1016.80 1016.72 1016.60 1016.60 1016.56 1016.52 1016.44 1016.40 1016.28 1016.16 1016.08 1015.96 1015.84 1015.72 1015.64 1015.56 1015.56 1015.40
1010.56 1010.80 1011.16 1011.36 1011.48 1011.76 1012.04 1012.56 1013.04 1013.48 1013.80 1013.96 1014.12 1014.20 1014.56 1014.88 1015.04 1014.88 1015.00 1015.52 1016.08 1016.52 1016.72 1016.88 1017.04 1017.08 1017.20 1017.24 1017.28 1017.40 1017.84 1017.96 1017.80 1017.52 1017.64 1017.48 1018.04 1018.52 1018.44 1018.52 1018.64 1018.80 1018.12 1017.88 1018.12 1018.80 1018.32 1018.20 1017.84 1017.96 1018.04 1018.00 1017.24 1016.92 1016.88 1016.84 1016.68 1016.52 1016.40 1016.24 1016.08 1016.04 1016.04 1015.96 1015.84 1015.72 1015.56 1015.44 1015.32 1015.20 1015.12 1015.04 1015.12 1014.92
1010.40 1010.52 1010.84 1011.08 1011.32 1011.60 1011.92 1012.32 1012.76 1013.20 1013.48 1013.48 1013.52 1013.72 1014.08 1014.36 1014.68 1014.24 1014.68 1015.04 1015.36 1015.96 1016.12 1016.28 1016.44 1016.52 1016.64 1016.80 1016.92 1017.16 1017.52 1017.64 1017.48 1017.44 1017.40 1017.56 1017.88 1018.32 1018.36 1018.16 1018.24 1018.52 1018.16 1017.64 1017.92 1018.52 1018.16 1018.04 1018.04 1017.80 1018.04 1018.32 1017.96 1017.20 1016.92 1016.72 1016.52 1016.40 1016.24 1016.08 1015.92 1015.68 1015.60 1015.48 1015.24 1015.08 1015.00 1014.92 1014.80 1014.72 1014.64 1014.56 1014.64 1014.52
1009.92 1010.32 1010.40 1010.48 1010.88 1011.28 1011.60 1012.00 1012.40 1012.84 1013.28 1013.28 1013.20 1013.28 1013.56 1013.60 1013.64 1013.88 1014.48 1015.04 1015.20 1015.52 1015.80 1016.04 1016.20 1016.40 1016.60 1016.64 1016.64 1016.84 1017.00 1017.12 1017.20 1017.28 1017.36 1017.32 1017.44 1017.68 1017.84 1017.76 1017.76 1017.92 1017.80 1017.52 1017.88 1018.20 1018.48 1018.12 1018.20 1018.00 1018.00 1018.04 1017.72 1017.40 1016.88 1016.76 1016.40 1016.20 1016.04 1015.92 1015.72 1015.40 1015.28 1015.04 1014.84 1014.56 1014.36 1014.32 1014.24 1014.16 1014.12 1014.12 1014.12 1014.16
1009.16 1009.44 1009.68 1009.88 1010.36 1010.88 1011.32 1011.72 1012.08 1012.60 1013.00 1013.28 1013.16 1012.96 1013.16 1013.44 1013.76 1014.00 1014.16 1014.60 1015.00 1015.24 1015.60 1015.80 1016.04 1016.24 1016.44 1016.60 1016.60 1016.60 1016.72 1016.76 1016.88 1016.92 1017.00 1017.16 1017.16 1017.24 1017.28 1017.60 1018.04 1018.20 1017.92 1017.64 1017.92 1018.08 1018.32 1018.32 1018.16 1018.24 1018.16 1018.12 1017.64 1017.40 1017.12 1016.76 1016.32 1015.96 1015.84 1015.68 1015.52 1015.24 1015.04 1014.76 1014.52 1014.28 1014.04 1013.80 1013.60 1013.52 1013.52 1013.56 1013.56 1013.52
1008.40 1008.68 1009.08 1009.48 1010.04 1010.60 1011.12 1011.44 1011.80 1012.32 1012.76 1013.28 1013.08 1013.04 1013.28 1013.56 1013.76 1013.96 1014.04 1014.44 1014.84 1015.20 1015.44 1015.72 1016.04 1016.16 1016.16 1016.36 1016.40 1016.60 1016.64 1016.56 1016.68 1016.76 1016.76 1016.88 1017.08 1017.20 1017.20 1017.28 1017.40 1017.64 1017.52 1017.48 1017.52 1017.76 1018.08 1018.20 1018.04 1018.20 1018.16 1017.96 1017.88 1017.44 1017.20 1016.80 1016.24 1015.92 1015.76 1015.48 1015.24 1014.92 1014.60 1014.40 1014.28 1014.04 1013.76 1013.60 1013.36 1013.28 1013.20 1013.00 1012.88 1012.76
1007.72 1008.20 1008.60 1009.04 1009.64 1010.32 1010.80 1011.20 1011.64 1012.20 1012.80 1012.84 1013.00 1013.20 1013.32 1013.56 1013.76 1013.76 1014.08 1014.44 1014.76 1015.08 1015.36 1015.72 1015.84 1015.96 1015.92 1015.92 1016.16 1016.32 1016.36 1016.32 1016.68 1016.72 1016.76 1016.88 1016.92 1017.04 1017.12 1017.24 1017.40 1017.44 1017.48 1017.48 1017.48 1017.64 1017.88 1018.04 1017.96 1017.84 1017.92 1017.96 1017.88 1017.60 1017.20 1016.56 1016.24 1015.96 1015.80 1015.32 1015.04 1014.64 1014.32 1014.12 1013.96 1013.76 1013.52 1013.28 1013.12 1012.88 1012.72 1012.44 1012.12 1011.96
1007.12 1007.48 1007.92 1008.48 1009.28 1009.88 1010.40 1010.96 1011.76 1012.36 1012.56 1012.72 1012.96 1013.16 1013.28 1013.48 1013.60 1013.76 1013.92 1014.24 1014.52 1014.96 1015.28 1015.40 1015.44 1015.52 1015.68 1015.88 1015.88 1015.96 1016.16 1016.36 1016.60 1016.84 1016.92 1016.80 1016.88 1016.92 1017.12 1017.28 1017.36 1017.40 1017.40 1017.32 1017.44 1017.52 1017.72 1017.80 1017.80 1017.68 1017.76 1017.68 1017.64 1017.24 1017.04 1016.68 1016.32 1015.92 1015.60 1015.48 1015.04 1014.48 1014.24 1014.04 1013.84 1013.64 1013.40 1013.16 1013.00 1012.76 1012.52 1012.24 1011.88 1011.56
1007.04 1007.48 1007.92 1008.52 1009.12 1009.76 1010.40 1011.16 1011.56 1011.84 1012.32 1012.56 1012.68 1012.88 1013.16 1013.16 1013.28 1013.48 1013.68 1013.96 1014.28 1014.60 1014.76 1014.96 1015.24 1015.24 1015.44 1015.76 1015.84 1016.08 1016.24 1016.52 1016.72 1016.68 1016.76 1016.88 1017.08 1017.04 1017.16 1017.28 1017.24 1017.12 1017.04 1017.16 1017.24 1017.40 1017.52 1017.60 1017.64 1017.72 1017.64 1017.44 1017.28 1017.08 1016.80 1016.56 1016.16 1015.76 1015.48 1015.28 1014.76 1014.28 1013.92 1013.72 1013.64 1013.44 1013.28 1013.08 1012.80 1012.56 1012.16 1011.96 1011.72 1011.52
1007.40 1007.72 1008.08 1008.56 1009.00 1009.52 1010.16 1010.56 1010.88 1011.36 1011.96 1012.60 1012.92 1013.16 1012.96 1012.88 1012.96 1013.16 1013.24 1013.40 1013.76 1014.00 1014.28 1014.60 1014.80 1015.04 1015.28 1015.52 1015.96 1016.24 1016.40 1016.52 1016.48 1016.44 1016.64 1016.68 1016.72 1016.88 1017.04 1017.32 1017.32 1017.08 1017.00 1016.96 1017.00 1017.16 1017.28 1017.32 1017.40 1017.48 1017.60 1017.28 1017.00 1016.84 1016.56 1016.40 1016.08 1015.64 1015.16 1014.80 1014.64 1014.72 1014.00 1013.72 1013.52 1013.32 1013.08 1012.84 1012.60 1012.36 1012.12 1011.76 1011.36 1011.08
1007.24 1007.84 1008.28 1008.64 1009.20 1009.76 1010.24 1010.48 1010.96 1011.36 1011.80 1012.12 1012.48 1012.52 1012.68 1012.84 1012.92 1013.00 1013.12 1013.20 1013.24 1013.52 1013.80 1014.24 1014.64 1015.16 1015.48 1015.76 1015.76 1015.88 1016.12 1016.16 1016.24 1016.32 1016.48 1016.64 1016.68 1016.72 1017.00 1017.28 1017.20 1017.00 1016.92 1016.96 1016.96 1017.00 1017.12 1017.16 1017.20 1017.20 1017.24 1017.16 1017.00 1016.56 1016.32 1016.08 1015.80 1015.36 1014.96 1014.60 1014.36 1014.12 1013.84 1013.60 1013.40 1013.12 1012.92 1012.84 1012.64 1012.32 1011.96 1011.56 1011.20 1010.80
1007.08 1007.80 1008.16 1008.56 1008.92 1009.28 1009.52 1010.04 1010.44 1011.08 1011.52 1011.96 1012.12 1012.28 1012.52 1012.88 1013.12 1013.16 1013.20 1013.32 1013.36 1013.56 1014.04 1014.52 1014.92 1015.20 1015.32 1015.44 1015.52 1015.64 1015.84 1016.00 1016.08 1016.20 1016.44 1016.60 1016.72 1016.80 1016.92 1017.00 1016.88 1016.92 1016.96 1016.88 1016.88 1016.96 1016.88 1016.84 1016.92 1016.96 1016.92 1016.72 1016.52 1016.32 1016.16 1015.88 1015.32 1014.92 1014.68 1014.40 1014.28 1014.12 1013.76 1013.44 1013.28 1013.04 1012.84 1012.76 1012.44 1011.96 1011.68 1011.44 1011.08 1010.64
1006.56 1007.36 1007.64 1007.76 1008.12 1008.44 1009.04 1009.40 1009.96 1010.52 1011.20 1011.80 1012.08 1012.16 1012.40 1012.60 1012.72 1012.80 1012.88 1012.84 1013.04 1013.44 1013.88 1014.28 1014.60 1014.88 1015.00 1015.24 1015.32 1015.48 1015.60 1015.84 1015.92 1016.08 1016.32 1016.52 1016.60 1016.80 1016.76 1016.72 1016.64 1016.64 1016.84 1016.88 1016.80 1016.80 1016.72 1016.80 1016.72 1016.64 1016.48 1016.32 1016.00 1015.80 1015.64 1015.48 1015.12 1014.68 1014.40 1014.24 1014.20 1014.04 1013.60 1013.36 1013.08 1012.92 1012.76 1012.52 1012.24 1011.84 1011.48 1011.00 1010.52 1010.08
1005.80 1006.60 1007.00 1007.40 1007.64 1008.08 1008.40 1008.92 1009.36 1010.00 1010.68 1011.24 1011.36 1011.72 1012.00 1011.96 1012.24 1012.56 1012.52 1012.52 1012.80 1013.28 1013.72 1014.00 1014.20 1014.44 1014.68 1014.84 1015.04 1015.24 1015.36 1015.52 1015.76 1016.04 1016.20 1016.24 1016.52 1016.48 1016.36 1016.48 1016.44 1016.56 1016.60 1016.64 1016.64 1016.60 1016.72 1016.72 1016.64 1016.48 1016.20 1015.96 1015.64 1015.00 1014.76 1014.80 1014.76 1014.44 1014.20 1014.04 1013.88 1013.76 1013.52 1013.20 1012.96 1012.64 1012.44 1012.12 1011.80 1011.56 1011.08 1010.56 1010.12 1009.64
1004.72 1005.48 1006.16 1006.80 1007.32 1007.52 1008.00 1008.40 1008.92 1009.40 1010.00 1010.64 1011.04 1011.44 1011.80 1012.00 1012.08 1012.20 1012.16 1012.28 1012.60 1013.04 1013.36 1013.72 1013.96 1014.20 1014.40 1014.52 1014.72 1014.88 1015.00 1015.28 1015.48 1015.76 1016.04 1016.08 1016.12 1016.12 1016.12 1016.20 1016.32 1016.32 1016.36 1016.48 1016.48 1016.40 1016.48 1016.52 1016.44 1016.40 1016.24 1015.80 1015.48 1015.08 1014.40 1014.20 1014.36 1014.28 1014.32 1014.04 1013.72 1013.60 1013.32 1013.08 1012.84 1012.56 1012.24 1011.84 1011.56 1011.32 1010.88 1010.32 1009.92 1009.64
1004.32 1005.12 1005.68 1006.36 1006.72 1007.04 1007.32 1007.84 1008.52 1009.00 1009.52 1010.04 1010.60 1010.84 1011.16 1011.44 1011.68 1011.76 1011.76 1012.20 1012.44 1012.68 1012.88 1013.24 1013.60 1013.84 1014.08 1014.20 1014.44 1014.68 1014.84 1015.16 1015.32 1015.48 1015.60 1015.64 1015.76 1015.88 1016.00 1016.00 1016.08 1016.16 1016.24 1016.20 1016.24 1016.28 1016.28 1016.28 1016.16 1016.12 1016.00 1015.68 1015.36 1015.08 1014.52 1013.92 1014.12 1014.08 1014.04 1013.92 1013.64 1013.36 1013.20 1012.96 1012.68 1012.28 1011.80 1011.60 1011.24 1010.92 1010.52 1010.12 1009.60 1009.20
1004.52 1004.88 1005.60 1006.12 1006.52 1006.64 1006.80 1007.28 1007.92 1008.56 1009.08 1009.68 1010.20 1010.68 1010.92 1011.04 1011.32 1011.52 1011.76 1012.16 1012.36 1012.44 1012.80 1013.04 1013.16 1013.52 1013.68 1013.92 1014.24 1014.48 1014.68 1014.88 1014.96 1015.20 1015.24 1015.40 1015.60 1015.68 1015.68 1015.72 1015.76 1015.80 1015.92 1015.96 1016.04 1016.04 1016.00 1016.00 1015.92 1015.76 1015.76 1015.64 1015.32 1014.88 1014.56 1014.04 1013.92 1013.64 1013.60 1013.72 1013.56 1013.24 1013.00 1012.80 1012.44 1012.00 1011.64 1011.24 1010.96 1010.52 1010.20 1009.84 1009.40 1008.92
1004.52 1005.08 1005.84 1006.32 1006.56 1006.40 1006.72 1007.20 1007.80 1008.52 1009.00 1009.64 1010.08 1010.52 1010.80 1010.88 1011.16 1011.44 1011.72 1011.76 1011.92 1012.16 1012.48 1012.76 1012.96 1013.20 1013.44 1013.68 1013.92 1014.24 1014.64 1014.84 1015.00 1014.96 1015.04 1015.12 1015.28 1015.44 1015.52 1015.52 1015.60 1015.56 1015.76 1015.76 1015.72 1015.68 1015.64 1015.64 1015.44 1015.40 1015.44 1015.44 1015.28 1014.88 1014.72 1014.60 1014.16 1013.52 1013.20 1013.32 1013.28 1013.16 1012.84 1012.64 1012.36 1011.92 1011.56 1011.08 1010.60 1010.32 1010.08 1009.60 1009.16 1008.76
1004.60 1005.24 1006.00 1006.68 1006.88 1006.60 1006.72 1007.24 1007.88 1008.28 1008.76 1009.20 1009.64 1010.08 1010.52 1010.88 1011.04 1011.24 1011.40 1011.52 1011.76 1012.00 1012.16 1012.48 1012.72 1013.12 1013.36 1013.52 1013.80 1014.00 1014.32 1014.56 1014.64 1014.64 1014.80 1014.88 1015.04 1015.20 1015.24 1015.32 1015.48 1015.56 1015.64 1015.60 1015.52 1015.36 1015.40 1015.28 1015.20 1015.28 1015.32 1015.20 1015.00 1014.80 1014.60 1014.36 1013.96 1013.44 1012.96 1012.52 1012.68 1012.80 1012.60 1012.48 1012.32 1012.00 1011.52 1011.00 1010.68 1010.32 1009.48 1008.92 1008.64 1008.36
1004.24 1005.04 1005.76 1006.32 1006.64 1006.56 1006.72 1007.16 1007.56 1007.88 1008.36 1008.96 1009.52 1009.96 1010.20 1010.44 1010.76 1010.92 1011.00 1011.24 1011.48 1011.76 1012.00 1012.24 1012.64 1012.92 1013.08 1013.36 1013.64 1013.84 1014.12 1014.28 1014.32 1014.40 1014.60 1014.76 1014.96 1015.08 1015.20 1015.48 1015.44 1015.32 1015.36 1015.36 1015.32 1015.28 1015.16 1015.04 1015.12 1015.32 1015.40 1015.08 1014.76 1014.64 1014.44 1013.96 1013.36 1012.80 1012.56 1012.16 1012.20 1012.36 1012.28 1012.32 1012.20 1012.00 1011.52 1011.00 1010.68 1010.28 1009.68 1009.08 1008.72 1008.44
1003.68 1004.52 1005.40 1005.96 1006.32 1006.44 1006.60 1006.96 1007.36 1007.84 1008.32 1008.84 1009.36 1009.92 1010.28 1010.52 1010.60 1010.80 1011.04 1011.28 1011.36 1011.52 1011.72 1012.04 1012.40 1012.68 1012.92 1013.24 1013.44 1013.72 1013.84 1014.04 1014.16 1014.28 1014.40 1014.48 1014.64 1014.88 1015.24 1015.20 1015.00 1014.96 1015.12 1015.16 1015.12 1015.04 1014.92 1014.92 1014.88 1014.88 1014.68 1014.52 1014.40 1014.32 1013.88 1013.56 1013.28 1012.80 1012.48 1012.12 1011.56 1011.60 1011.84 1011.88 1011.84 1011.68 1011.40 1011.04 1010.72 1010.32 1009.80 1009.32 1009.32 1009.04
1003.68 1004.24 1004.96 1005.36 1005.60 1005.88 1006.24 1006.80 1007.32 1007.84 1008.32 1008.76 1009.24 1009.68 1010.16 1010.52 1010.80 1010.96 1010.84 1011.08 1011.24 1011.36 1011.56 1011.88 1012.16 1012.48 1012.72 1013.00 1013.24 1013.48 1013.60 1013.80 1013.88 1014.00 1014.12 1014.28 1014.36 1014.44 1014.48 1014.52 1014.60 1014.76 1014.88 1014.92 1014.92 1014.92 1014.84 1014.68 1014.56 1014.48 1014.28 1014.08 1013.88 1013.88 1013.72 1013.32 1013.04 1012.64 1012.20 1011.76 1011.52 1011.36 1011.24 1011.16 1011.08 1011.00 1010.84 1010.60 1010.52 1010.44 1010.24 1010.08 1009.96 1009.24
1003.96 1004.44 1004.84 1005.08 1005.24 1005.60 1006.12 1006.80 1007.40 1007.80 1008.28 1008.72 1009.24 1009.64 1010.00 1010.36 1010.56 1010.52 1010.44 1010.68 1010.96 1011.16 1011.40 1011.72 1012.04 1012.32 1012.64 1012.84 1013.08 1013.32 1013.44 1013.48 1013.60 1013.76 1013.92 1014.04 1014.12 1014.20 1014.24 1014.28 1014.48 1014.64 1014.72 1014.76 1014.76 1014.72 1014.56 1014.44 1014.24 1014.12 1014.08 1013.76 1013.52 1013.52 1013.36 1013.16 1012.80 1012.48 1012.16 1011.80 1011.48 1011.20 1010.96 1010.72 1010.48 1010.28 1010.04 1009.84 1009.76 1009.88 1009.92 1009.80 1009.60 1009.24
1003.96 1004.36 1004.80 1005.08 1005.20 1005.64 1006.20 1006.80 1007.36 1007.84 1008.24 1008.68 1009.08 1009.44 1009.76 1009.88 1010.00 1010.12 1010.28 1010.52 1010.76 1011.04 1011.36 1011.60 1011.92 1012.16 1012.36 1012.60 1012.92 1013.20 1013.28 1013.44 1013.48 1013.48 1013.64 1013.76 1013.88 1014.00 1014.08 1014.16 1014.28 1014.44 1014.56 1014.56 1014.68 1014.60 1014.44 1014.24 1014.00 1013.76 1013.68 1013.44 1013.24 1013.20 1013.08 1012.96 1012.80 1012.44 1012.00 1011.64 1011.32 1011.04 1010.88 1010.68 1010.44 1010.04 1009.72 1009.40 1009.28 1009.48 1009.36 1009.20 1009.08 1008.84
Wind_Speed
7 6 6 6 5 4 4 4 4 4 3 3 3 4 4 4 4 4 4 4 4 2 3 5 2 1 2 2 1 1 1 1 2 3 3 4 5 5 7 8 8 8 9 10 10 10 10 10 10 10 10 10 9 10 10 10 10 10 10 11 11 11 11 9 9 9 9 9 10 10 11 11 11 11
6 6 6 6 6 4 5 5 5 5 4 4 4 4 3 3 4 3 4 3 2 2 2 4 2 2 2 2 2 1 2 2 4 4 4 4 4 3 4 6 8 9 10 10 10 10 11 11 11 11 10 10 9 10 10 10 10 10 10 10 11 11 11 10 9 9 9 10 10 10 11 12 11 11
6 7 7 6 6 5 6 5 5 5 5 5 4 3 3 4 4 3 3 4 2 1 2 2 2 3 3 2 2 3 3 3 4 4 4 4 4 5 6 8 9 10 10 10 10 11 11 11 11 11 10 10 10 9 10 10 10 10 10 10 11 11 11 9 9 9 10 11 11 11 11 12 12 12
7 8 8 8 7 6 5 6 5 5 5 5 5 4 4 4 4 4 4 5 4 3 2 2 3 4 3 3 4 5 4 2 5 4 4 3 2 4 5 7 9 10 10 10 11 11 12 12 12 12 12 11 10 11 12 11 11 11 10 10 10 11 11 9 9 9 10 11 11 11 11 12 12 12
8 9 9 9 9 7 7 6 6 6 6 6 5 5 5 5 5 5 5 5 5 3 3 3 4 3 4 5 5 5 4 4 3 4 4 4 5 5 5 5 7 10 10 10 10 11 11 11 12 12 13 12 11 11 11 12 12 11 11 11 10 10 9 9 9 9 10 11 11 11 12 12 12 12
8 9 10 10 9 8 9 8 8 7 7 7 7 6 6 6 6 6 6 6 5 5 3 4 4 4 5 5 5 5 5 4 3 4 3 4 5 5 5 5 5 7 8 9 9 10 10 11 11 12 13 13 13 12 12 12 12 12 12 11 11 10 9 9 8 8 9 10 11 12 12 11 11 11
10 10 10 11 10 7 9 9 9 9 8 8 8 8 7 7 7 7 7 6 6 6 5 3 4 4 5 6 5 5 4 3 4 4 5 5 4 4 5 6 6 4 7 8 8 9 10 10 11 11 11 12 12 12 12 12 12 11 11 10 10 10 9 9 8 8 9 10 11 12 12 11 11 11
11 12 11 11 12 10 11 10 9 9 9 8 8 9 8 8 8 7 7 7 6 5 5 4 4 3 4 5 5 4 4 5 4 5 4 4 5 6 5 5 6 5 4 6 8 10 11 11 11 11 11 11 11 11 11 11 11 11 11 10 10 9 8 8 8 8 9 10 10 11 11 12 11 11
12 12 13 12 12 12 12 11 10 9 11 9 8 9 8 7 7 6 6 7 7 6 6 5 4 4 4 4 4 4 4 4 4 4 5 5 5 6 6 6 5 6 8 10 11 11 11 11 11 11 12 13 13 12 11 10 10 11 11 11 10 9 9 9 9 9 9 9 9 10 10 11 12 12
13 13 13 12 13 13 13 12 11 10 12 9 9 10 9 8 7 7 7 7 7 7 7 6 6 5 5 4 4 4 3 4 4 4 4 4 4 5 5 5 4 3 3 4 4 6 8 10 10 11 12 12 12 12 11 9 9 10 10 11 10 9 9 9 9 9 9 9 9 9 10 10 11 11
14 13 13 13 13 14 14 13 12 11 11 9 11 10 9 9 8 8 8 8 8 8 7 7 7 6 5 4 4 2 1 2 4 5 5 5 3 4 4 4 2 3 4 5 7 8 8 10 10 7 8 9 10 11 10 10 10 9 10 10 9 9 10 10 9 9 9 8 8 9 9 10 10 11
13 14 14 14 14 14 14 14 12 12 10 9 10 10 9 9 9 9 8 8 8 8 8 7 7 6 6 5 4 3 3 4 5 5 4 5 5 5 5 4 3 3 4 5 5 4 7 8 9 11 11 12 10 9 9 9 10 10 9 8 8 8 9 9 9 9 8 8 9 9 10 10 10 10
13 13 14 14 15 15 15 17 12 12 11 10 10 10 10 10 9 9 8 8 8 8 8 8 7 6 6 6 5 5 5 5 5 2 3 5 6 6 6 3 2 2 4 4 4 4 4 4 4 4 6 5 6 8 9 7 10 11 10 9 9 9 9 10 10 10 10 10 10 10 10 11 10 11
13 14 14 14 17 17 17 16 15 15 16 15 12 10 10 10 9 9 9 9 8 8 8 8 7 7 7 6 6 5 5 4 3 4 4 5 5 5 6 6 3 0 3 2 4 5 5 4 5 5 6 6 6 7 6 6 5 4 5 7 8 8 9 9 10 10 11 11 12 11 11 11 11 11
13 14 15 13 13 15 14 15 16 15 16 16 16 14 13 12 11 10 11 10 9 8 8 8 8 8 8 6 3 4 4 4 4 4 4 4 4 4 6 7 3 3 1 6 7 7 5 6 8 6 6 6 6 6 5 4 4 6 7 8 8 8 9 9 9 10 10 11 11 12 12 12 12 12
12 13 13 11 9 12 14 13 13 14 16 16 16 15 14 14 14 12 11 9 8 9 9 8 9 8 7 3 2 4 5 4 5 5 4 4 4 5 6 7 8 2 2 6 8 9 7 6 8 8 6 6 6 5 4 6 7 7 8 8 9 9 9 9 9 10 10 10 11 11 11 11 11 11
12 11 10 10 9 8 13 12 12 12 12 14 16 15 14 14 15 14 13 11 10 8 9 9 9 7 3 3 3 5 5 4 6 4 4 4 4 5 7 8 8 6 4 6 8 9 8 7 8 8 7 6 5 5 6 7 6 7 8 8 9 9 10 10 10 10 10 10 10 10 11 11 11 11
13 12 11 9 9 9 11 12 12 11 11 11 11 10 10 10 12 13 13 12 10 7 8 8 9 5 5 5 6 6 6 6 6 5 5 4 5 6 7 6 6 7 5 8 8 8 8 6 7 8 7 6 5 5 4 5 7 7 8 9 9 10 10 10 10 10 10 10 11 10 10 10 11 11
12 12 11 10 10 11 11 11 13 12 11 11 10 11 11 12 11 11 12 11 10 8 8 7 7 6 6 7 6 5 5 7 5 5 5 5 5 5 6 6 6 7 5 5 5 7 8 7 8 8 8 7 7 7 6 5 6 6 7 7 8 8 9 9 9 10 10 11 11 11 11 12 12 12
11 11 10 10 11 11 11 13 16 13 10 11 11 12 12 11 10 10 11 10 10 8 9 8 8 8 7 5 5 3 4 4 4 4 3 3 4 5 6 7 7 8 4 2 5 7 8 7 8 9 8 7 8 7 8 6 3 5 6 7 8 9 9 10 10 10 11 11 12 13 13 13 13 13
11 10 11 11 11 11 11 12 15 15 12 11 13 13 12 10 10 9 7 7 8 9 10 12 8 2 5 4 4 4 2 3 3 4 4 5 5 5 7 7 7 7 5 3 5 6 9 7 8 8 7 7 9 9 8 6 6 5 6 8 9 9 10 11 11 12 12 13 13 13 13 13 12 13
10 11 14 14 13 12 11 15 17 17 14 12 13 14 14 13 12 10 7 5 5 4 3 1 1 2 4 5 5 4 5 5 6 5 6 4 5 6 6 7 7 7 6 5 1 5 7 7 6 7 7 8 7 7 6 7 8 8 8 8 9 11 11 11 13 13 13 14 14 14 14 14 12 9
12 10 13 18 15 13 12 16 17 17 15 13 13 14 13 13 13 11 9 9 8 7 7 5 5 4 5 4 4 5 7 8 8 5 6 6 6 7 7 6 6 7 6 1 3 4 6 6 6 7 8 8 7 7 6 7 8 8 8 9 10 9 9 12 13 14 15 15 15 15 15 15 10 8
11 11 12 15 18 17 15 16 17 16 17 14 13 13 13 12 13 10 10 10 10 9 8 7 7 6 6 6 6 6 7 6 6 6 6 6 6 6 6 6 6 7 7 2 3 4 6 6 7 5 7 9 9 7 9 9 9 9 9 9 9 9 9 11 12 14 15 15 16 15 16 15 12 8
12 12 13 12 17 18 16 16 17 16 18 16 13 13 12 12 10 10 9 10 10 9 8 7 7 6 6 6 6 6 6 6 6 6 6 6 6 6 5 6 6 5 4 1 5 4 6 6 8 7 7 7 9 10 8 9 9 9 8 9 10 10 10 10 10 10 10 12 15 17 16 16 15 10
13 13 13 13 15 19 16 16 16 16 17 17 10 13 9 9 13 10 9 9 9 8 7 7 7 7 7 7 7 7 6 5 6 6 6 6 6 5 4 3 3 4 5 6 6 3 5 6 6 7 8 8 9 9 11 10 9 9 8 9 9 9 10 10 10 9 9 9 9 8 8 10 12 14
14 14 14 12 16 19 17 17 16 15 17 13 10 9 12 13 14 10 8 8 8 7 7 7 7 7 7 7 7 6 5 5 5 5 5 5 5 5 4 4 4 5 5 5 4 4 4 6 5 7 8 8 10 10 10 10 10 9 10 9 10 10 10 9 10 10 10 10 9 11 12 15 17 18
15 14 14 12 18 19 18 18 16 14 14 11 11 12 13 15 12 9 8 8 8 7 7 7 7 7 7 7 6 6 6 5 6 5 4 5 5 4 4 4 5 5 5 5 4 3 3 5 6 6 6 7 9 10 11 10 10 10 11 10 10 10 9 10 10 10 10 9 9 9 9 10 9 10
14 14 17 18 19 19 20 17 13 11 14 12 14 14 15 13 8 8 8 8 8 8 8 8 7 7 8 6 5 5 6 5 5 5 5 4 4 3 3 3 3 3 3 3 3 3 3 4 6 6 6 6 8 9 10 11 11 11 10 11 11 9 10 9 9 9 10 10 10 10 10 10 11 11
15 18 19 21 20 18 15 11 9 9 9 13 16 17 15 10 9 8 8 8 8 8 8 8 8 7 6 6 6 6 6 6 6 6 5 5 5 5 4 4 4 3 3 3 3 2 3 3 4 4 6 7 8 9 9 11 11 10 10 11 11 10 7 8 9 9 10 10 10 11 11 11 12 12
11 16 15 12 13 11 16 12 12 10 13 11 10 8 8 8 8 8 8 9 9 8 7 7 6 6 6 6 7 6 6 6 6 5 4 4 4 4 3 2 4 4 3 3 3 2 3 4 4 4 6 7 8 9 10 10 11 11 10 9 9 10 10 9 8 9 9 10 11 11 11 11 12 12
10 10 13 16 12 12 11 11 10 9 10 10 9 10 8 6 6 7 5 4 6 6 6 5 6 6 6 7 7 7 7 7 6 5 5 4 3 3 2 3 5 4 4 3 3 3 4 4 4 4 5 6 8 9 9 9 10 10 10 8 8 8 9 9 9 9 10 11 11 12 12 13 13 12
10 11 11 11 12 11 13 11 11 10 10 10 9 9 8 6 6 6 6 8 8 8 6 7 7 8 8 7 7 7 7 6 5 5 4 4 3 3 3 5 5 5 5 5 4 4 4 4 4 5 6 7 8 9 8 9 8 8 8 8 8 8 8 8 9 10 11 10 10 11 11 11 12 13
12 12 11 12 12 13 12 13 12 13 11 11 10 9 9 8 8 9 8 8 8 7 7 7 8 8 8 8 7 7 6 6 5 5 5 4 4 4 5 5 5 4 4 5 5 5 5 5 6 6 6 8 8 9 8 8 8 8 8 7 7 8 8 8 9 10 10 10 11 13 12 12 11 12
14 13 12 12 13 13 13 12 12 11 11 10 10 9 9 9 9 9 8 8 7 8 8 8 8 8 8 8 7 7 7 6 6 5 5 5 5 5 5 5 4 4 4 5 5 5 5 6 6 7 6 6 7 8 12 9 6 7 8 7 7 8 8 8 9 10 11 11 10 12 13 13 12 11
13 12 13 14 13 12 11 11 10 10 9 9 8 9 9 8 8 8 8 8 8 8 9 8 8 8 8 7 7 7 7 6 6 6 6 6 5 4 4 4 4 4 4 5 5 5 5 6 6 6 7 6 7 8 5 13 11 6 8 8 7 7 8 9 9 10 12 12 11 12 14 14 13 13
14 11 10 10 10 11 12 11 10 9 10 9 9 9 9 9 8 8 8 9 8 9 8 8 8 8 8 7 7 7 6 7 6 6 6 5 4 4 4 4 4 4 4 4 4 5 5 6 6 6 6 7 7 8 8 2 10 13 6 8 8 7 8 9 9 11 11 10 11 11 12 13 14 13
10 11 11 10 11 11 11 12 11 10 10 9 9 8 9 9 8 8 7 8 8 8 8 8 8 8 8 7 7 7 7 7 6 6 5 5 5 5 4 4 4 4 4 4 5 5 5 6 6 5 5 7 8 8 9 7 8 4 10 7 8 8 8 9 10 11 11 11 12 12 12 13 15 17
11 11 10 9 11 12 10 9 9 9 9 9 8 8 9 10 9 8 8 8 9 8 8 8 8 8 8 7 7 6 7 6 6 6 5 5 5 4 4 4 4 3 4 5 5 5 5 6 5 5 5 6 8 8 9 9 9 10 5 12 6 8 7 8 10 11 11 12 12 11 12 13 17 19
9 8 9 9 8 7 7 9 10 10 9 9 8 8 9 10 8 8 8 8 8 8 8 8 8 7 7 7 7 7 7 7 6 5 5 5 5 4 3 3 3 3 4 5 5 5 5 5 4 5 6 7 7 7 8 8 10 10 10 9 14 10 6 8 9 10 11 11 11 13 16 16 16 16
12 11 10 10 9 7 9 9 10 9 9 9 8 7 8 7 8 8 8 8 8 8 8 8 7 8 7 7 8 7 7 6 5 5 5 5 4 4 1 1 4 3 4 5 6 6 6 5 5 4 7 7 7 6 7 8 9 9 9 8 5 14 13 9 8 9 11 12 11 12 14 16 17 17
12 12 10 9 9 7 7 8 8 8 8 8 8 7 6 5 5 7 7 8 7 8 8 7 7 8 7 7 7 7 6 6 5 5 6 5 4 4 5 4 3 3 3 5 5 6 6 7 7 6 6 5 5 6 8 9 11 10 10 9 9 7 15 15 14 14 12 11 11 12 13 14 15 18
10 8 10 11 8 8 8 8 7 8 7 7 7 6 6 6 6 7 7 7 7 8 7 7 7 8 7 7 7 7 6 6 6 6 6 5 4 3 3 2 2 3 4 5 6 6 7 7 6 6 6 6 5 5 8 9 10 10 10 10 9 9 8 8 11 14 16 18 16 13 10 11 12 14
10 10 7 8 7 8 7 7 6 6 7 7 6 6 7 7 7 7 7 7 7 7 7 8 8 8 8 7 6 6 5 6 6 6 5 5 4 3 2 2 2 3 4 5 6 6 6 7 6 6 6 7 6 6 8 9 10 10 10 9 10 11 11 9 9 9 10 12 13 12 13 13 12 14
8 9 8 6 7 7 7 7 7 7 7 7 7 7 6 7 7 7 6 7 7 8 8 8 8 8 7 7 6 7 6 6 5 5 5 4 4 3 3 2 3 3 4 5 6 7 6 6 6 6 6 6 6 6 7 8 9 10 9 10 11 9 9 10 11 12 11 11 1 8 10 11 10 12
Wind_Direction
204 206 199 213 217 194 184 199 201 193 199 211 197 208 221 216 251 243 241 238 260 197 234 249 133 161 167 176 152 170 255 348 295 283 261 260 259 242 221 234 251 258 262 265 266 269 268 266 264 260 261 259 261 264 265 262 264 265 265 266 269 271 272 269 265 259 255 247 248 248 251 257 262 267
197 200 199 208 217 193 193 204 198 188 196 198 203 208 214 211 232 239 255 259 219 216 185 237 171 166 157 163 165 233 262 185 254 254 256 254 258 273 250 256 257 260 263 264 268 270 271 272 272 272 270 268 262 258 255 256 259 259 260 262 266 268 269 269 267 262 258 257 253 251 253 258 259 260
193 195 203 200 213 196 208 204 196 195 194 198 201 202 194 201 223 232 224 250 167 232 225 209 221 183 200 231 240 247 254 188 214 240 242 243 248 259 266 257 260 266 270 274 274 273 272 272 271 272 271 270 269 256 252 251 254 257 258 261 264 265 266 267 269 270 266 261 257 255 254 255 256 257
191 197 202 198 205 198 202 203 198 195 198 196 198 194 196 204 213 210 219 235 250 184 234 214 198 224 209 224 261 274 271 171 192 257 250 251 207 241 251 232 244 256 261 265 267 268 270 271 272 272 272 271 264 259 262 261 258 256 258 260 264 267 270 270 271 270 268 265 263 261 257 255 255 256
189 198 203 203 207 200 202 202 202 201 195 193 196 192 200 209 200 207 216 234 248 218 203 228 238 215 242 244 239 249 245 239 227 229 254 257 260 262 263 269 215 224 241 250 254 258 261 264 267 270 272 271 265 259 255 261 262 262 262 262 264 267 268 269 269 269 271 271 268 263 260 258 254 253
193 194 202 206 204 199 207 203 201 204 201 196 202 195 205 210 203 203 220 232 247 255 183 212 214 231 217 249 235 242 252 254 251 254 252 245 251 257 271 265 269 204 235 245 255 259 260 262 262 264 267 269 272 272 271 268 267 266 266 267 268 268 269 270 268 264 263 265 265 267 266 261 261 258
192 195 200 204 200 194 207 207 208 205 203 203 205 202 200 210 212 199 211 228 237 243 242 220 229 218 215 236 239 233 245 271 274 277 269 269 255 248 257 269 279 216 220 238 253 260 262 260 258 258 260 266 270 273 272 271 270 269 268 267 264 262 261 261 265 265 271 269 268 268 266 264 263 262
193 197 199 205 201 195 204 206 205 204 202 199 201 204 199 204 212 206 201 214 238 248 258 215 227 224 233 230 246 256 263 269 269 270 282 272 270 272 267 264 269 269 256 259 266 272 277 280 283 283 279 274 265 264 268 272 275 276 274 269 265 263 259 258 258 255 259 262 265 267 269 269 268 266
195 197 201 200 196 193 201 205 206 201 199 200 199 205 202 205 209 209 204 208 216 236 248 252 224 214 221 237 251 253 263 256 252 248 254 274 284 283 288 284 271 266 257 260 262 267 269 273 275 277 280 282 285 285 281 276 275 274 273 272 268 267 269 268 267 266 262 258 256 256 258 261 264 266
200 200 203 199 193 195 201 206 203 198 198 195 199 202 203 202 204 208 209 210 211 222 239 244 253 215 222 219 232 222 221 263 276 275 269 257 252 263 274 281 282 289 291 292 259 244 246 242 244 260 271 279 283 284 285 282 272 267 265 266 270 271 267 266 268 268 268 266 264 261 258 256 256 257
206 206 204 201 197 198 201 204 199 194 191 193 201 201 201 199 200 206 211 208 211 218 228 234 238 252 244 245 257 176 179 251 261 275 287 282 259 248 252 264 260 272 283 274 247 260 290 305 295 292 282 275 275 280 285 284 277 267 256 263 265 260 260 261 260 258 259 263 264 263 261 259 258 254
209 208 208 208 203 203 203 203 200 189 188 191 200 199 200 199 200 208 210 211 217 222 228 233 233 231 243 239 242 227 240 254 237 227 257 285 283 278 265 248 279 299 291 291 297 236 231 237 232 237 248 250 258 268 274 263 271 277 280 267 262 268 274 277 278 281 282 280 276 274 269 263 260 255
212 211 212 212 211 206 205 200 196 189 188 189 198 195 195 198 200 207 214 216 216 224 230 232 231 233 234 236 237 234 227 237 268 221 238 267 275 288 292 281 212 257 276 283 287 287 301 298 297 309 301 280 218 229 224 253 239 249 263 272 279 279 279 281 285 287 287 283 278 274 273 273 272 269
211 214 215 214 210 206 203 198 198 196 195 199 201 191 191 193 196 203 212 216 217 223 227 230 230 234 238 240 227 239 246 250 242 234 230 257 275 283 291 291 309 215 271 294 300 308 311 312 311 298 288 288 275 296 267 302 340 314 284 273 268 268 271 276 279 282 284 285 285 284 282 281 279 276
211 215 216 218 207 203 200 198 198 201 199 203 209 202 194 194 193 199 207 214 214 216 229 235 234 240 247 252 245 253 274 254 245 252 250 264 274 289 304 304 303 146 331 312 306 301 305 304 301 294 282 284 288 293 292 24 287 273 282 286 285 283 279 278 277 276 274 275 277 278 279 279 278 277
212 214 213 212 205 199 201 202 197 202 204 205 208 210 204 201 204 206 202 203 207 216 229 235 239 243 246 251 226 261 256 242 236 234 241 246 262 281 280 290 298 344 109 311 304 302 299 295 299 298 288 293 290 293 319 290 275 283 288 291 293 291 289 285 279 275 273 273 273 273 272 273 277 279
212 211 206 204 193 190 185 196 200 197 205 208 210 211 209 208 208 213 213 210 218 218 222 237 244 240 221 237 246 241 241 242 250 233 236 236 245 266 278 284 294 305 319 298 292 298 304 299 292 292 294 291 293 284 221 211 247 272 282 287 290 291 289 288 286 283 279 274 271 272 274 275 278 279
213 209 202 196 187 187 187 198 199 198 200 197 204 213 215 215 214 216 219 220 225 236 234 235 241 197 174 220 218 224 217 219 232 237 250 245 264 268 276 303 302 297 302 291 302 292 295 299 300 297 302 302 294 279 272 236 254 264 273 277 280 283 284 285 286 287 287 286 283 279 275 271 268 267
212 210 207 196 187 182 190 194 193 195 197 197 199 204 209 216 212 207 211 214 213 211 220 220 224 208 210 223 227 221 214 225 237 250 268 271 281 287 295 285 264 268 244 248 266 282 300 302 293 296 303 305 299 300 300 219 228 250 264 270 275 280 282 281 281 281 280 279 277 275 274 274 273 270
215 211 202 192 189 181 192 189 185 192 191 198 204 203 210 212 211 209 210 201 200 202 201 206 222 229 216 207 220 209 214 217 218 212 195 240 254 269 277 284 291 289 293 228 274 289 296 302 297 303 306 301 296 305 302 313 244 256 277 290 295 292 288 287 285 283 281 278 276 275 274 274 274 275
214 206 196 191 189 185 198 181 182 191 191 205 208 212 210 209 209 213 183 137 169 178 195 205 216 53 72 108 114 131 160 248 211 212 241 256 261 259 278 285 287 285 298 275 262 291 299 303 304 303 303 304 301 298 302 306 329 329 286 276 274 273 278 281 280 280 279 278 277 278 279 276 274 275
212 203 188 188 187 189 195 174 184 191 190 208 212 216 215 214 216 211 172 157 161 180 186 160 111 135 135 129 143 150 158 173 198 209 246 265 273 270 271 280 287 295 294 290 290 284 290 309 306 301 302 298 286 296 300 314 311 300 285 264 251 257 266 275 281 282 283 281 279 277 274 273 273 272
218 206 190 186 189 192 194 180 188 189 189 205 212 212 213 213 214 206 167 163 162 170 188 191 182 168 160 173 194 192 179 190 211 222 250 269 266 264 277 281 282 282 280 80 136 287 295 305 306 312 309 302 306 304 308 302 301 306 308 310 306 288 266 269 273 276 275 274 275 274 273 273 270 277
200 198 199 187 188 193 187 183 189 189 191 205 210 209 210 211 210 193 168 172 173 176 185 182 181 185 171 177 188 180 169 181 196 221 241 252 249 249 254 264 274 284 295 304 159 290 297 303 300 315 310 308 306 312 304 300 301 301 302 304 303 303 287 272 260 252 249 256 264 266 267 268 263 274
191 191 198 196 187 191 186 184 189 187 195 206 211 208 209 210 194 156 168 166 178 179 177 171 174 178 176 185 201 198 193 193 194 205 221 235 234 237 249 270 277 290 291 86 133 287 292 306 300 304 303 299 297 300 305 301 298 300 301 302 305 305 303 301 300 297 287 256 246 251 257 259 257 247
195 190 191 197 179 184 183 189 186 190 192 204 214 209 189 129 133 160 170 166 176 181 172 175 180 182 191 200 207 210 201 203 196 209 207 207 218 219 252 266 258 265 285 113 140 290 286 287 298 304 301 297 296 300 304 301 298 302 308 304 301 302 302 302 304 302 298 301 296 277 281 263 255 249
195 194 192 187 165 179 183 187 188 186 193 191 208 162 139 150 152 155 177 164 172 178 178 177 179 189 199 201 206 202 200 194 189 196 200 190 200 216 229 240 248 265 283 306 293 285 267 279 290 289 297 300 298 300 294 301 308 311 302 305 308 306 304 307 306 306 304 301 295 285 267 255 254 254
193 187 185 175 162 178 183 189 183 178 175 188 177 146 150 148 158 164 156 164 169 172 174 181 192 202 201 210 204 194 190 186 169 193 181 197 204 210 223 217 242 255 276 278 280 269 263 273 279 280 285 293 295 299 301 299 300 306 306 308 307 307 312 312 307 304 301 297 298 297 298 298 289 276
185 167 164 156 165 175 184 183 158 163 178 168 148 151 148 153 161 165 165 171 170 176 180 190 197 204 206 196 188 168 163 151 155 174 190 198 203 200 222 240 247 238 238 247 252 257 252 270 284 291 282 279 285 290 295 299 303 302 307 309 304 314 314 307 304 304 304 301 298 296 296 293 287 279
140 142 148 154 163 167 161 146 161 166 167 161 157 155 157 167 174 177 179 173 174 184 187 191 194 194 179 171 159 148 157 171 184 192 192 187 193 206 211 226 225 222 226 211 233 222 242 248 259 269 279 279 280 287 292 299 298 299 300 298 304 303 299 314 313 306 302 301 298 297 294 294 290 292
133 137 141 148 147 142 152 152 142 140 140 142 149 158 171 179 176 180 184 181 181 187 188 183 184 171 161 150 148 161 171 185 189 189 192 211 202 203 200 241 267 268 254 244 250 228 268 268 260 258 269 284 290 287 291 291 290 294 297 303 311 312 318 311 307 307 308 304 304 301 305 301 299 290
130 129 124 122 124 130 140 143 147 145 157 161 165 176 179 174 176 179 153 160 185 186 188 170 158 149 153 165 172 173 184 188 184 184 197 214 214 213 198 248 264 273 276 262 262 225 216 244 252 250 256 272 285 291 288 279 281 288 296 301 306 308 310 315 315 313 313 313 309 311 309 308 305 301
122 131 141 144 144 150 148 151 151 154 159 170 169 165 163 167 173 183 185 187 185 178 160 166 166 166 170 173 176 181 183 184 180 179 190 197 210 197 223 260 278 278 280 283 287 283 279 267 232 245 263 270 265 268 276 282 280 290 299 308 311 306 310 309 312 310 313 307 301 304 303 304 306 302
139 152 154 154 153 154 157 160 161 162 163 159 166 167 167 171 181 187 189 185 174 164 174 172 174 171 176 174 180 185 189 179 186 175 191 185 192 208 229 249 260 258 258 276 287 292 294 290 290 274 260 255 255 251 252 264 283 297 304 307 299 300 302 307 308 309 305 303 305 312 308 305 300 292
153 161 154 157 158 163 161 159 155 157 159 166 162 165 169 180 181 189 185 179 166 166 175 176 176 172 178 181 181 190 194 189 182 169 192 193 194 221 240 249 254 257 271 284 287 286 280 283 286 285 277 267 265 255 225 233 284 301 313 306 309 300 300 305 308 309 306 302 302 300 300 299 299 301
149 149 150 157 163 157 151 153 150 155 154 154 155 157 169 176 184 182 185 170 168 172 177 173 175 175 182 185 185 194 194 191 189 184 186 199 209 221 230 238 247 261 271 280 281 282 287 288 289 288 295 302 297 298 292 198 218 309 307 312 307 300 298 302 302 303 313 313 302 303 304 301 305 308
146 149 148 147 149 156 155 153 152 154 155 159 166 168 174 178 180 189 171 155 173 179 176 174 177 180 184 190 188 195 189 190 198 191 198 199 209 218 229 231 235 248 264 268 273 279 278 281 279 280 290 299 303 305 303 324 211 222 287 302 306 304 307 306 303 313 314 307 304 303 301 301 299 305
149 146 150 154 160 160 153 154 150 155 157 160 163 169 182 182 175 169 153 165 177 175 170 181 180 184 190 187 194 193 192 195 200 195 205 202 207 215 225 249 265 273 277 278 274 275 275 275 275 279 284 295 305 304 311 312 316 256 205 250 298 305 303 304 309 317 312 310 307 306 305 300 307 313
150 152 157 158 163 161 152 145 142 142 148 152 162 170 183 190 175 163 167 177 175 176 174 184 185 186 191 189 196 190 190 191 199 207 208 210 211 218 232 245 263 268 274 280 281 276 275 271 276 287 294 297 296 307 311 306 296 309 259 192 265 284 293 309 312 310 311 311 310 308 303 304 306 305
147 147 149 159 166 154 124 132 149 158 153 157 165 174 178 183 169 168 170 171 171 173 178 183 184 177 187 188 189 193 197 199 207 206 209 211 203 212 234 251 271 280 276 281 285 286 281 281 282 302 304 289 287 285 293 285 281 268 271 254 209 221 280 310 306 308 307 305 308 313 319 320 320 323
154 152 157 158 163 147 140 147 154 158 155 158 162 169 178 170 167 171 173 168 170 171 180 178 173 185 188 182 188 198 198 201 203 204 199 206 197 218 190 234 264 261 277 287 288 283 284 304 315 293 265 271 267 270 261 275 298 317 315 313 195 205 223 229 274 298 296 301 305 306 313 325 326 323
151 148 149 153 157 141 135 141 144 141 143 154 159 157 154 153 157 138 151 152 164 171 179 175 174 185 182 179 187 196 208 201 199 198 197 204 193 189 182 218 256 276 281 287 291 296 304 298 289 274 269 258 262 274 300 312 314 314 315 308 312 209 204 220 232 243 261 287 306 308 313 319 323 318
144 137 148 157 145 145 140 133 134 145 149 149 148 145 148 149 146 155 167 162 167 173 179 175 176 181 179 182 185 195 205 203 201 198 196 199 207 220 222 233 272 301 295 289 288 289 288 286 277 274 280 283 276 285 299 314 314 310 309 313 314 319 310 269 241 237 243 248 247 254 285 305 314 308
143 144 143 145 130 127 123 130 131 133 138 138 136 141 151 155 158 165 162 161 165 173 175 174 173 178 180 181 180 190 207 208 196 198 199 201 208 221 248 280 283 290 290 288 288 287 291 287 287 282 291 297 303 297 307 314 316 320 316 313 315 319 320 323 319 294 266 257 246 241 247 247 254 270
141 140 139 133 124 124 120 124 131 138 138 137 141 146 149 155 153 155 156 160 169 169 169 174 176 180 182 179 183 194 201 194 205 198 205 203 206 207 221 254 274 281 282 287 288 288 286 286 288 284 281 290 292 294 301 308 309 308 309 315 318 322 324 327 322 321 321 322 274 187 234 250 276 309